User: anonymous
Location: Nirvana
(45.0297°N, 77.2628°W)
Time: 17:21:42
(UTC-04:00)
Language:

H-2A R/B - Orbit

View from above orbital plane
View from above orbital plane
View from above satellite
View from above satellite

Ground track
Ground track

The orbit data is extracted from the following two-line orbital elements,

1 27601U 02056E   14245.41280207  .00000098  00000-0  51272-4 0  1708
2 27601 098.4791 326.2762 0073460 071.6335 338.1099 14.31403342612040
Epoch (UTC): 02 September 2014 09:54:26
Eccentricity: 0.0073460
inclination: 98.4791°
perigee height: 734 km
apogee height: 839 km
right ascension of ascending node: 326.2762°
argument of perigee: 71.6335°
revolutions per day: 14.31403342
mean anomaly at epoch: 338.1099°
orbit number at epoch: 61204

The dashed part of the orbit path shows where the satellite is in the earth's shadow,  

DLR